Home > Weather > Angels Camp > Past weeks

Flag for U.S.A. Weather for the Past 2 Weeks in Angels Camp, California, U.S.A.

Now
51 °F

Clear.


Feels Like: 51 °F
Forecast: 37 / 67 °F
Wind: No wind

Location: Modesto City-County-Sham Field

Current Time: Feb 6, 2016 at 10:54:27 PM

Latest Report: Feb 6, 2016 at 9:53 PM


Visibility: 10 mi

Pressure: 30.32 "Hg

Humidity: 80%

Dew point: 45 °F

Location of Angels CampLocation

Historic Weather in Angels Camp — Graph

°F

Angels Camp Temperature Yesterday

Maximum temperature yesterday: 63 °F (at 3:53 PM)
Minimum temperature yesterday: 38 °F (at 4:53 AM)
Average temperature yesterday: 50 °F

High & Low Weather Summary for the Past Weeks

 TemperatureHumidityPressure
High65 °F (Feb 6, 2:53 PM)100% (Jan 26, 4:53 AM)30.49 "Hg (Jan 26, 4:53 AM)
Low35 °F (Feb 3, 6:53 AM)28% (Feb 1, 3:53 PM)29.71 "Hg (Jan 31, 2:53 PM)
Average50 °F77%30.22 "Hg
* Reported Jan 22 9:53 PM — Feb 6 9:53 PM, Angels Camp, Weather by CustomWeather, © 2016

Note: Actual official high and low records may vary slightly from our data, if they occured in-between our weather recording intervals... More about our weather records

Advertising

Angels Camp Weather History for the Previous 24 Hours

 ConditionsComfort  
Time TempWeatherWind HumidityBarometerVisibility
9:53 PM
Sat, Feb 6
51 °FClear.No wind80%30.32 "Hg10 mi
8:53 PM54 °FClear.No wind74%30.31 "Hg10 mi
7:53 PM55 °FClear.7 mph74%30.30 "Hg10 mi
6:53 PM57 °FClear.6 mph67%30.30 "Hg10 mi
5:53 PM59 °FClear.6 mph60%30.30 "Hg10 mi
4:53 PM62 °FSunny.8 mph56%30.30 "Hg10 mi
3:53 PM65 °FSunny.9 mph49%30.31 "Hg10 mi
2:53 PM65 °FSunny.8 mph51%30.32 "Hg10 mi
1:53 PM64 °FSunny.12 mph52%30.33 "Hg10 mi
12:53 PM63 °FSunny.8 mph56%30.37 "Hg10 mi
11:53 AM61 °FSunny.6 mph60%30.41 "Hg10 mi
10:53 AM57 °FSunny.3 mph69%30.43 "Hg9 mi
9:53 AM52 °FSunny.8 mph80%30.44 "Hg6 mi
8:53 AM46 °FFog.3 mph93%30.44 "Hg3 mi
7:56 AM41 °FFog.5 mph93%30.44 "Hg1 mi
6:53 AM39 °FFog.No wind89%30.42 "Hg1 mi
5:53 AM40 °FFog.No wind93%30.42 "Hg3 mi
4:52 AM39 °FFog.No wind96%30.41 "Hg1 mi
3:53 AM40 °FFog.3 mph93%30.40 "Hg1 mi
2:53 AM41 °FFog.No wind96%30.40 "Hg2 mi
1:53 AM44 °FFog.No wind89%30.41 "Hg4 mi
12:53 AM47 °FFog.No wind90%30.41 "Hg4 mi
11:53 PM
Fri, Feb 5
47 °FFog.No wind90%30.43 "Hg4 mi
10:53 PM49 °FClear.3 mph84%30.44 "Hg6 mi
Weather by CustomWeather, © 2016

See weather overviewHow to use our weather pages